Lancaster, PA

9:36 AM EST on February 22, 2017 (GMT -0500)
Lancaster

Weather History for KLNS - November, 2013

Change the Weather History Date:

Friday, November 1, 2013

  Actual Average Record
Temperature  
Mean Temperature 62 °F -  
Max Temperature 71 °F 59 °F 134 °F (1997)
Min Temperature 52 °F 39 °F 25 °F (1986)
Degree Days  
Heating Degree Days 4    
Growing Degree Days 12 (Base 50)    
Moisture  
Dew Point 50 °F    
Average Humidity 67    
Maximum Humidity 84    
Minimum Humidity 40    
Precipitation  
Precipitation 0.35 in - - ()
Sea Level Pressure  
Sea Level Pressure 29.64 in    
Wind  
Wind Speed 10 mph (SW)    
Max Wind Speed 17 mph    
Max Gust Speed 25 mph    
Visibility 10 miles    
Events Rain , Thunderstorm    
Averages and records for this station are not official NWS values.
T = Trace of Precipitation, MM = Missing Value Source: NWS Daily Summary

Daily Weather History Graph

Daily Weather History Graph

Search for Another Location

Airport or City:

Trip Planner

Search our weather history database for the weather conditions in past years. The results will help you decide how hot, cold, wet, or windy it might be!

Date:

Astronomy

Nov. 01, 2013 Rise Set
Actual Time 7:34 AM EDT 6:02 PM EDT
Civil Twilight 7:06 AM EDT 6:30 PM EDT
Nautical Twilight 6:34 AM EDT 7:02 PM EDT
Astronomical Twilight 6:02 AM EDT 7:34 PM EDT
Moon 5:24 AM EDT (11/1) 4:53 PM EDT (11/1)
Length of Visible Light 11h 23m
Length of Day
10h 27m
Waning Crescent, 4% of the Moon is Illuminated
Nov 1
Waning Crescent
Nov 3
New
Nov 10
First Quarter
Nov 17
Full
Nov 25
Last Quarter

Hourly Weather History & Observations

Time (EDT) Temp. Dew Point Humidity Pressure Visibility Wind Dir Wind Speed Gust Speed Precip Events Conditions
12:53 AM 63.0 °F 57.9 °F 84% 29.71 in 10.0 mi South 12.7 mph 20.7 mph N/A   Partly Cloudy
1:53 AM 63.0 °F 57.9 °F 84% 29.69 in 10.0 mi South 12.7 mph 19.6 mph 0.01 in   Overcast
2:10 AM 62.6 °F 57.2 °F 82% 29.69 in 7.0 mi South 9.2 mph 17.3 mph 0.01 in Rain , Thunderstorm Light Rain
2:25 AM 62.6 °F 57.2 °F 82% 29.68 in 10.0 mi South 8.1 mph 19.6 mph 0.01 in Rain Light Rain
2:53 AM 63.0 °F 57.9 °F 84% 29.67 in 10.0 mi SSW 11.5 mph - 0.01 in   Scattered Clouds
8:53 AM 61.0 °F 55.9 °F 83% 29.62 in 10.0 mi SW 10.4 mph - 0.14 in   Overcast
9:53 AM 62.1 °F 55.0 °F 78% 29.62 in 10.0 mi WSW 13.8 mph - 0.08 in Rain Light Rain
10:53 AM 62.1 °F 54.0 °F 75% 29.63 in 10.0 mi SW 11.5 mph - 0.06 in   Overcast
11:53 AM 64.0 °F 54.0 °F 70% 29.62 in 10.0 mi SW 9.2 mph - 0.03 in   Overcast
12:53 PM 66.9 °F 55.0 °F 66% 29.62 in 10.0 mi SW 13.8 mph - 0.02 in   Mostly Cloudy
1:53 PM 69.1 °F 51.1 °F 53% 29.60 in 10.0 mi WSW 16.1 mph 24.2 mph N/A   Scattered Clouds
2:53 PM 70.0 °F 48.9 °F 47% 29.60 in 10.0 mi WSW 15.0 mph 25.3 mph N/A   Clear
3:53 PM 71.1 °F 46.0 °F 41% 29.59 in 10.0 mi West 17.3 mph - N/A   Clear
4:53 PM 69.1 °F 44.1 °F 40% 29.60 in 10.0 mi West 13.8 mph 19.6 mph N/A   Clear
5:53 PM 66.0 °F 43.0 °F 43% 29.62 in 10.0 mi WSW 5.8 mph - N/A   Clear
6:53 PM 60.1 °F 43.0 °F 53% 29.63 in 10.0 mi WSW 4.6 mph - N/A   Clear
7:53 PM 61.0 °F 42.1 °F 50% 29.65 in 10.0 mi Calm Calm - N/A   Clear
8:53 PM 53.1 °F 44.1 °F 71% 29.66 in 10.0 mi Calm Calm - N/A   Clear
9:53 PM 52.0 °F 44.1 °F 74% 29.68 in 10.0 mi Calm Calm - N/A   Mostly Cloudy
10:53 PM 54.0 °F 45.0 °F 72% 29.69 in 10.0 mi Calm Calm - N/A   Partly Cloudy
11:53 PM 52.0 °F 46.0 °F 80% 29.67 in 10.0 mi Calm Calm - N/A   Overcast